This is the latest recevied weather packets stored in our database for station/object KI8L. If no packets are shown the sender has not sent any weather packets the latest 10 day(s).
| Time | Temp. | Humidity | Pressure | Rain* | Wind** | Luminosity | Snow |
|---|---|---|---|---|---|---|---|
| 1777774844 | 3.33° C | 94% | 1019.6 hPa | 0 mm | - | 0 W/m² | - |
| 1777774542 | 3.33° C | 94% | 1019.7 hPa | 0 mm | - | 0 W/m² | - |
| 1777774238 | 3.33° C | 95% | 1019.8 hPa | 0 mm | - | 0 W/m² | - |
| 1777773936 | 3.33° C | 96% | 1019.7 hPa | 0 mm | - | 0 W/m² | - |
| 1777773633 | 3.89° C | 96% | 1019.6 hPa | 0 mm | - | 0 W/m² | - |
| 1777773329 | 3.89° C | 96% | 1019.5 hPa | 0 mm | - | 0 W/m² | - |
| 1777773027 | 3.89° C | 96% | 1019.4 hPa | 0 mm | - | 0 W/m² | - |
| 1777772722 | 3.89° C | 94% | 1019.6 hPa | 0 mm | - | 0 W/m² | - |
| 1777772421 | 3.89° C | 93% | 1019.3 hPa | 0 mm | - | 0 W/m² | - |
| 1777772117 | 3.89° C | 93% | 1019.6 hPa | 0 mm | - | 0 W/m² | - |
| 1777771815 | 3.89° C | 94% | 1019.4 hPa | 0 mm | - | 0 W/m² | - |
| 1777771513 | 3.89° C | 91% | 1019.5 hPa | 0 mm | - | 0 W/m² | - |
| 1777771209 | 3.89° C | 94% | 1019.5 hPa | 0 mm | - | 0 W/m² | - |
| 1777770905 | 3.89° C | 93% | 1019.6 hPa | 0 mm | - | 0 W/m² | - |
| 1777770602 | 3.89° C | 92% | 1019.5 hPa | 0 mm | - | 0 W/m² | - |
| 1777770299 | 3.89° C | 91% | 1019.4 hPa | 0 mm | - | 0 W/m² | - |
| 1777769996 | 3.89° C | 91% | 1019.4 hPa | 0 mm | - | 0 W/m² | - |
| 1777769693 | 4.44° C | 91% | 1019.4 hPa | 0 mm | - | 0 W/m² | - |
| 1777769390 | 4.44° C | 91% | 1019.4 hPa | 0 mm | - | 0 W/m² | - |
| 1777769087 | 4.44° C | 88% | 1019.5 hPa | 0 mm | - | 0 W/m² | - |
| 1777768785 | 5° C | 85% | 1019.3 hPa | 0 mm | - | 0 W/m² | - |
| 1777768481 | 5° C | 87% | 1019.3 hPa | 0 mm | - | 1 W/m² | - |
| 1777768178 | 5° C | 85% | 1019.3 hPa | 0 mm | - | 1 W/m² | - |
| 1777767875 | 5° C | 78% | 1019.2 hPa | 0 mm | - | 2 W/m² | - |
| 1777767572 | 5° C | 80% | 1019.4 hPa | 0 mm | - | 2 W/m² | - |
* Rain latest hour (hover to see other rain measurements)
** Current wind speed in m/s (hover to see current wind gust speed)